Rbgn^[z[y[W
メイン
   新天体発見情報
     Comet P/2014 U2 = 2019 O1 (Kowalski)
投稿するにはまず登録を

スレッド表示 | 新しいものから 前のトピック | 次のトピック | 下へ
投稿者 スレッド
佐藤裕久
投稿日時: 2019-8-4 12:56
モデレータ
登録日: 2005-6-12
居住地: 日本
投稿: 2505
オンライン
Comet P/2014 U2 = 2019 O1 (Kowalski)

佐藤英貴氏(東京都文京区)によると、7月27日と28日UT、オーストラリア、ニューサウスウェールズ
州、Siding SpringにあるiTelescope 天文台の0.51-m f/6.8 アストログラフで得た60秒CCD露出か
らP/2014 U2 (CBET 4006を参照)を検出した。両夜の12枚スタックではいずれも恒星状であった。
4".9の円形範囲で測定した光度は20.0等と20.2等であった。
検出した観測の残差は、中野主一氏のNK 3208 (ICQ's Comet Handbook 2019)の予報に対し赤経は
-71"、赤緯は-45"であった。予報に対する修正値は、Delta(T) = +0.015 dayであった。
MPC 102108のGareth V. Williamsの予報に対する修正値は、Delta(T) = -0.02 daysであった。

検出位置は次のとおり、

     2019 UT             R.A. (2000) Decl.       Mag.   Observer
     July 27.80516    0 19 11.22   - 6 50 21.0          Sato
          27.80840    0 19 11.70   - 6 50 16.7            "
          27.81162    0 19 12.20   - 6 50 12.5   20.0     "
          28.65017    0 21 20.61   - 6 32 49.7            "
          28.65342    0 21 21.12   - 6 32 46.1            "
          28.65666    0 21 21.58   - 6 32 42.1   20.2     "

MPCの連結軌道要素と位置推算表は次のとおり、

Orbital elements:
    P/2014 U2 (Kowalski)                                                        
Epoch 2014 Sept. 20.0 TT = JDT 2456920.5                                        
T 2014 Oct. 7.14813 TT                                  MPCLINUX                
q   1.1642934            (2000.0)            P               Q                  
n   0.19625527     Peri.   35.24935     +0.85294009     -0.52193652             
a   2.9326157      Node   356.18168     +0.44397860     +0.73409418             
e   0.6029847      Incl.    7.49562     +0.27454726     +0.43438232             
P   5.02                                                                        
From 165 observations 2014 Oct. 18-2019 July 28, mean residual 0".6.            
                                                                                
    P/2014 U2 (Kowalski)                                                        
Epoch 2019 Oct. 4.0 TT = JDT 2458760.5                                          
T 2019 Oct. 11.41154 TT                                 MPCLINUX                
q   1.1163585            (2000.0)            P               Q                  
n   0.19936174     Peri.   37.64358     +0.84867457     -0.52876215             
a   2.9020720      Node   354.23499     +0.44925531     +0.73334979             
e   0.6153236      Incl.    7.28121     +0.27914360     +0.42732737             
P   4.94                                                                        
From 165 observations 2014 Oct. 18-2019 July 28, mean residual 0".6.            
                                                                                
    P/2014 U2 (Kowalski)                                                        
Epoch 2024 Sept. 7.0 TT = JDT 2460560.5                                         
T 2024 Sept. 19.14357 TT                                MPCLINUX                
q   1.1120825            (2000.0)            P               Q                  
n   0.19974809     Peri.   37.71281     +0.84835618     -0.52927086             
a   2.8983287      Node   354.19984     +0.44965230     +0.73308968             
e   0.6163021      Incl.    7.28331     +0.27947201     +0.42714385             
P   4.93                                                                        
From 165 observations 2014 Oct. 18-2019 July 28, mean residual 0".6.            
                                                                                
    P/2014 U2 (Kowalski)                                                        
Epoch 2019 Apr. 27.0 TT = JDT 2458600.5                                         
T 2019 Oct. 11.39815 TT                                 MPCLINUX                
q   1.1164930            (2000.0)            P               Q                  
n   0.19927780     Peri.   37.62244     +0.84882373     -0.52852294             
a   2.9028868      Node   354.24003     +0.44905558     +0.73347612             
e   0.6153853      Incl.    7.28076     +0.27901138     +0.42740647             
P   4.95                                                                        
From 165 observations 2014 Oct. 18-2019 July 28, mean residual 0".6.            
                                                                                
Ephemeris:
Date    TT    R. A. (2000) Decl.     Delta      r    Elong.  Phase   m1
2019 06 28    23 12 41.4 -14 28 16   1.0048  1.6764   112.1    34.2  21.8
...
2019 07 13    23 44 20.9 -11 09 46   0.8011  1.5603   117.8    35.2  21.0
...
2019 07 21    00 02 35.7 -08 59 47   0.7035  1.5000   120.4    35.8  20.5
...
2019 07 27    00 17 10.0 -07 06 49   0.6356  1.4558   122.0    36.3  20.1
2019 07 28    00 19 40.9 -06 46 27   0.6248  1.4486   122.2    36.4  20.1
2019 07 29    00 22 13.6 -06 25 37   0.6141  1.4414   122.5    36.5  20.0
...
2019 08 04    00 38 07.4 -04 09 29   0.5528  1.3989   123.6    37.1  19.7
...
2019 08 12    01 01 23.8 -00 32 56   0.4793  1.3447   124.6    38.4  19.2
...
2019 08 27    01 54 10.8 +08 32 33   0.3698  1.2535   123.6    42.2  18.3

(CBET 4654、MPEC 2019-O84)

スレッド表示 | 新しいものから 前のトピック | 次のトピック | トップ

投稿するにはまず登録を
 
© 1999 Tsutomu Seki.